Regional Weather Roundup
Issued by NWS

Home | Current Version | Previous Version | Text Only | Print | Product List | Glossary On
Versions: 1 2 3 4 5 6 7 8 9 10 11 12 13 14 15 16 17 18 19 20 21 22 23 24 25 26 27 28 29 30 31 32 33 34 35 36 37 38 39 40 41 42 43 44 45 46 47 48 49 50
000
ASHW40 PHFO 282343
RWRHI

WEATHER ROUNDUP FOR HAWAII
NATIONAL WEATHER SERVICE HONOLULU HI
100 PM HST THU AUG 28 2014

THIS IS AN AUTOMATED REPORT THAT HAS NOT BEEN QUALITY CONTROLLED.

NOTE..."FAIR" INDICATES FEW OR NO CLOUDS BELOW 12,000 FEET WITH NO
SIGNIFICANT WEATHER AND/OR OBSTRUCTIONS TO VISIBILITY.

* - THESE SITES REPORT LIMITED FIELDS

HIZ001>004-290000-
KAUAI-NIIHAU-

CITY           SKY/WX    TMP DP  RH WIND       PRES   REMARKS
LIHUE APT      MOSUNNY   84  70  62 NE16      29.92F
PORT ALLEN*      N/A     88 N/A N/A E13G20      N/A
POIPU*           N/A     84 N/A N/A NE9G17      N/A
PRINCEVILLE*   NOT AVBL
KOKOLE POINT*  NOT AVBL
MOLOAA DAIRY*  NOT AVBL
WAIMEA HTS*      N/A     91  64  40 SW9G15      N/A  HX  93
PUU OPAE*        N/A     77  63  61 SW3G10      N/A
PUU LUA*       NOT AVBL
MAKAHA RIDGE*  NOT AVBL
$$

HIZ005>011-290000-
OAHU-

CITY           SKY/WX    TMP DP  RH WIND       PRES   REMARKS
HONOLULU       MOSUNNY   88  66  48 NE13G23   29.88F HX  90
KALAELOA       MOSUNNY   88  66  48 VRB5      29.89F HX  90
KANEOHE MCB    SUNNY     86  70  58 NE12      29.90F HX  90
WHEELER FIELD  PTSUNNY   83  65  54 E14G22    29.91S
BELLOWS*         N/A    N/A N/A N/A NE13        N/A
KAHUKU*          N/A    N/A N/A N/A NE7G15      N/A
WHEELER*       NOT AVBL
WAIANAE HARBOR NOT AVBL
DILLINGHAM*      N/A     95  72  46 N3G14       N/A  HX 103
KAHUKU TRN*      N/A     82  70  65 E9G18       N/A
KAWAILOA*      NOT AVBL
KII*             N/A     82  72  69 E12         N/A
MAKUA RANGE*     N/A     84  68  58 E10G23      N/A
OAHU FOREST NW   N/A     70  66  88 N12G23      N/A
SCHOFIELD BRK*   N/A     82  64  54 MISG        N/A
SCHOFIELD S*   NOT AVBL
WAIANAE VLY*     N/A     88  68  51 S7G18       N/A  HX  91
KUAOKALA*        N/A     79  68  69 CALM        N/A
HONOULIUULI*   NOT AVBL
MOKUOLOE IS*     N/A    N/A N/A N/A MISG        N/A
PALEHUA*         N/A     90  63  40 CALM        N/A  HX  90
WAIAWA PHB*    NOT AVBL
$$

HIZ012>013-290000-
MOLOKAI-

CITY           SKY/WX    TMP DP  RH WIND       PRES   REMARKS
MOLOKAI AIRPT  MOSUNNY   83  71  67 NE15G23   29.90F
KALAUPAPA      NOT AVBL
MAKAPULAPAI*     N/A     82  66  57 E13G22      N/A
MOLOKAI 1*       N/A     75  64  69 NW8G22      N/A
PUU ALII*        N/A     64  62  94 E2G8        N/A
$$

HIZ016-290000-
KAHOOLAWE-

CITY           SKY/WX    TMP DP  RH WIND       PRES   REMARKS
KAHOOLAWE*       N/A     79 N/A N/A N13G24      N/A
HAKIOAWA*      NOT AVBL
HONOKANAIA*      N/A     86  68  54 S5        29.89F
KANELOA*         N/A     84  63  48 N14G28    29.98F
KEALIALALO*    NOT AVBL
LUA MAKIKA*    NOT AVBL
$$

HIZ014>015-290000-
LANAI-

CITY           SKY/WX    TMP DP  RH WIND       PRES   REMARKS
LANAI CITY     FAIR      85  63  47 NE17G25   29.94F
LANAI 1*         N/A     82  70  65 NE18G26     N/A
$$

HIZ017>028-290000-
MAUI-

CITY           SKY/WX    TMP DP  RH WIND       PRES   REMARKS
KAHULUI        MOSUNNY   87  69  54 NE16      29.89F HX  91
KAPALUA-W MAUI MOSUNNY   86  68  54 NE17G25   29.90
HANA AIRPORT   MOSUNNY   82  72  69 N6        29.91F
HANA*            N/A     81 N/A N/A NW7         N/A
HALEAKALA SUMM   N/A     54  43  66 E8G22       N/A
MAALAEA BAY*   NOT AVBL
HALEAKALA*     NOT AVBL
KAUPO GAP*       N/A     72  63  73 NW3G15      N/A
KULA 1*          N/A     62  56  81 W7G14       N/A
$$

HIZ023>026-290000-
BIG ISLAND OF HAWAII COAST AND LOWER SLOPES-

CITY           SKY/WX    TMP DP  RH WIND       PRES   REMARKS
KAILUA KONA    SUNNY     85  69  58 SW7       29.85F
HILO           MOSUNNY   84  70  62 N13       29.88F
HONOKAA*       NOT AVBL
KAWAIHAE MWT*    N/A     90 N/A N/A SW8         N/A
KAWAIHAE*        N/A     84 N/A N/A W9          N/A
SOUTH POINT*     N/A     79 N/A N/A E10G16      N/A
UPOLU AIRPORT*   N/A    N/A N/A N/A NE17        N/A
KAMUELA*       PTCLDY    77  63  61 NE16      29.98S
HAKALAU*         N/A     63  53  70 E6G12       N/A
KALOKO-HONOKO*   N/A     86  64  48 W8        29.84F
PALI 2*          N/A     72  66  83 SW8G16      N/A
KEALAKOMO*       N/A     86  72  62 E17G25      N/A  HX  92
KAUPULEHU*       N/A     82  61  47 W10G18      N/A
KAPAPALA*        N/A     75  65  70 S2G10       N/A
LOWER KAHUKU*  NOT AVBL
PUHE CS*       NOT AVBL
PUHO CS*         N/A     85  62  46 S5G12       N/A
PTA KEAMUKU*     N/A     73  59  60 NE22G31     N/A
WAIKOLOA*        N/A     88  59  37 E18G25      N/A
$$

HIZ027>028-290000-
BIG ISLAND OF HAWAII INTERIOR AND SUMMMITS-

CITY           SKY/WX    TMP DP  RH WIND       PRES   REMARKS
BRADSHAW FIELD PTSUNNY   66  55  68 SW10G20   30.20F
MK VISITOR CEN NOT AVBL
MAUNA KEA*       N/A     54  30  40 E1          N/A
MAUNA LOA*       N/A     54  37  54 MISG        N/A
MAUNA LOA 1*   NOT AVBL
PTA KIPUKA*      N/A     70  57  64 NW10G18     N/A
PTA RANGE 17*    N/A     72  55  56 W14G23      N/A
PTA WEST*        N/A     72  59  64 NW17G26     N/A
NENE CABIN*    NOT AVBL
AHUMOA*          N/A     64  58  80 VRB13G20    N/A
PTA PORTABLE*  NOT AVBL
PUU MALI*      NOT AVBL
$$

HIC003-290000-
NORTHWEST ISLANDS-

CITY           SKY/WX    TMP DP  RH WIND       PRES   REMARKS
MIDWAY ISLAND  SUNNY     88  73  62 NE14      30.13F HX  96
MIDWAY NOS*    NOT AVBL
FRENCH FRIGATE NOT AVBL
$$

PHZ110>124-180-290000-
BUOY REPORTS

STATION/POSITION TIME  TEMP    WIND        PRES    WAVE   SWELL
                       AIR SEA DIR/SP/G            HT/PER HT/DIR
                 (UTC) (F)     (DEG/KT/KT) (MB)    (FT/S) (FT/D)
BUOY 51001       NOT AVBL
BUOY 51101       NOT AVBL
BUOY 51100       2300   78 79   50/ 12/ 14 1012.5F
BUOY 51003       2300   81 82   70/ 12/ 14 1011.5F   6/ 7   5
BUOY 51004       2229   78 81   60/  8/ 10 1011.2F   6/ 8   5/ 80
BARBERS PT BUOY  NOT AVBL
WAIMEA BAY BUOY  2300      81                N/A     4/ 8   2/ 40
KAILUA BAY BUOY  2300      81                N/A     5/ 8   2/ 80
LANAI BUOY       NOT AVBL
BARBERS PT 2     2300      81                N/A     4/15   3/180
PAUWELA MAUI     2300      81                N/A     5/ 9   2/ 70
HILO             NOT AVBL
KANEOHE BAY BUOY 2300      81                N/A     5/ 9   2/ 70
HANALEI KAUAI    NOT AVBL
KAHULUI HARBOR   2300   79 82   10/ 10/ 12 1011.9F
HONOLULU HARBOR  2300   84      60/  9/ 18 1011.8F
KILO NALU        NOT AVBL
HILO HARBOR      2300   80      10/ 14/ 16 1011.1F
MOKUOLOE         2300   81 82   50/ 11/ 16 1012.7F
NAWILIWILI       2300      84                N/A
WHOTS BUOY       NOT AVBL
BUOY 51028       NOT AVBL
$$

......................KEY........................................
  SKY/WX - SKY CONDITIONS/PRESENT WEATHER
  TMP    - TEMPERATURE IN FAHRENHEIT
  DWPT   - DEWPOINT IN FAHRENHEIT
  RH     - RELATIVE HUMIDITY IN PERCENT
  WIND   - DIRECTION AND SPEED /MPH FOR ISLANDS...KTS FOR BUOYS/
  PRES   - MEAN SEA LEVEL PRESSURE IN INCHES OF HG
  VSB    - VISIBILITY IN MILES
  HX     - HEAT INDEX
  WCI    - WIND CHILL INDEX
  VRB    - VARIABLE WIND DIRECTION
  N/A    - NOT AVAILABLE


USA.gov is the U.S. government's official web portal to all federal, state and local government web resources and services.